ITF-2 (41932 NORAD) Tracking and Keplerian Element Data

This shows tracking and keplerian element data for the satellite.

Feedback or suggestion? Click here.




ElementValue
Catalog41932
NameITF-2
Epoch Orbit11263
Epoch Day3.69298287
Epoch Year2019
RAAN8.9412
Inclination51.6105
Eccentricity0.0001311
Argument of Perigee269.7383
Mean Anonmoly90.3495
Mean Motion16.44586236
Decay Rate0.08988731
L11 41932U 98067KU 19003.69298287 .08988731 12526-4 32153-3 0 9994
L22 41932 51.6105 8.9412 0001311 269.7383 90.3495 16.44586236112635



Live tracking and technical data element details for ITF-2 (NORAD 41932). ITF-2 can be tracked NOW for your location showing map with azimuth and elevation plus other details from your city location.







IsCatalogInMostPopularTable: catalog: 41932, numindb: 618
Update: records affected: 1



GetName: 41932 ITF-2

Hit Count: updated at: Mon, 28 Nov 2022 04:35:56 GMT